Regional Weather Roundup
Issued by NWS

Home | Current Version | Previous Version | Graphics & Text | Print | Product List | Glossary On
Versions: 1 2 3 4 5 6 7 8 9 10 11 12 13 14 15 16 17 18 19 20 21 22 23 24 25 26 27 28 29 30 31 32 33 34 35 36 37 38 39 40 41 42 43 44 45 46 47 48 49 50
168
ASUS44 KJAN 292103
RWRMS

MISSISSIPPI HOURLY WEATHER ROUNDUP
NATIONAL WEATHER SERVICE JACKSON MS
400 PM CDT FRI AUG 29 2014

NOTE: "FAIR: INDICATES FEW OR NO CLOUDS BELOW 12,000 FEET WITH NO
SIGNIFICANT WEATHER AND/OR OBSTRUCTIONS TO VISIBILITY.

MSZ001>002-007>008-010>013-018>021-025>028-034>036-292200-
NORTHWEST MISSISSIPPI

CITY           SKY/WX    TMP DP  RH WIND       PRES   REMARKS
CLARKSDALE     FAIR      90  73  58 SE3       29.92F HX  98
CLEVELAND      LGT RAIN  79  76  91 CALM      29.93F
GREENWOOD      MOSUNNY   92  67  43 VRB7      29.92F HX  95
GREENVILLE     PTSUNNY   86  71  60 NE9       29.92F HX  91
GRENADA        FAIR      91  64  40 S7        29.93F HX  93
OLIVE BRANCH   PTSUNNY   91  68  46 S13       29.93F HX  95
OXFORD         FAIR      90  63  40 SW5       29.96F HX  90
TUNICA         CLEAR     91  68  46 SE9       29.92F HX  95
$$

MSZ003>006-009-014>017-022>024-029>033-037>039-292200-
NORTHEAST MISSISSIPPI

CITY           SKY/WX    TMP DP  RH WIND       PRES   REMARKS
BELMONT        FAIR      90  62  39 S5        29.98F HX  90
COLUMBUS AFB   MOSUNNY   94  62  34 S10       29.95F HX  94
CORINTH        FAIR      91  63  38 S10       29.95F HX  92
GOLDN TRIANGLE PTSUNNY   93  63  36 SE9       29.96F HX  94
STARKVILLE     FAIR      90  63  40 SE8       29.95S HX  90
TUPELO         MOSUNNY   94  59  31 S10       29.95F HX  93
$$

MSZ040-058-292200-
CENTRAL MISSISSIPPI

CITY           SKY/WX    TMP DP  RH WIND       PRES   REMARKS
JACKSON INTL   PTSUNNY   93  65  39 SE9       29.94F HX  95
JACKSON HAWKNS MOSUNNY   93  66  40 S9        29.94F HX  96
MERIDIAN KEY   MOSUNNY   92  63  38 SE10      29.96S HX  93
MERIDIAN NAS   PTSUNNY   94  63  35 S8        29.96F HX  95
RAYMOND        FAIR      91  86  84 SE5       29.93F HX 122
VICKSBURG      MOSUNNY   91  69  48 S12       29.92F HX  96
$$

MSZ059>079-292200-
SOUTH MISSISSIPPI

CITY           SKY/WX    TMP DP  RH WIND       PRES   REMARKS
BROOKHAVEN     FAIR      90  72  55 SE7       29.98R HX  96
COLUMBIA       RAIN      79  75  89 SE6       29.97R
HATTIESBURG    TSTM      86  72  62 SE15G23   29.97R HX  92
MCCOMB         CLOUDY    87  71  58 S10       29.97R HX  93
NATCHEZ        PTSUNNY   90  72  55 S9        29.95R HX  96
PINE BELT      CLOUDY   N/A N/A N/A SE10      29.98S
$$

MSZ080>082-292200-
COASTAL MISSISSIPPI

CITY           SKY/WX    TMP DP  RH WIND       PRES   REMARKS
BAY ST LOUIS   LGT RAIN N/A N/A N/A W6        29.98R
BILOXI         LGT RAIN  76  74  94 VRB1      29.98R
PASCAGOULA     LGT RAIN  80  74  81 VRB3      29.97S
GULFPORT       LGT RAIN  77  75  93 N6        29.96F FOG
$$



USA.gov is the U.S. government's official web portal to all federal, state and local government web resources and services.